#timestamp,LO_Frequency,Hit,StdDev 
1581872415.6,286047002.1,N
1581872435.4,286047001.6,N
1581872455.3,286047000.1,N
1581872475.1,286047002.6,N
1581872495.9,286047002.7,N
1581872515.7,286047000.6,N
1581872535.5,286046998.2,N
1581872555.4,286046998.5,N
1581872575.2,286047000.9,N
1581872595.1,286047002.3,N
1581872596.0,286047002.3,N
1581872615.8,286047003.7,N
1581872635.6,286047003.9,N
1581872655.5,286047002.8,N
1581872675.3,286047000.2,N
1581872695.2,286047002.4,N
1581872715.9,286047001.4,N
1581872735.7,286047000.6,N
1581872755.6,286046998.3,N
1581872775.4,286046998.6,N
1581872795.2,286046998.7,N
1581872815.1,286047000.5,N
1581872816.0,286047000.5,N
1581872835.8,286047000.6,N
1581872855.7,286047000.8,N
1581872875.5,286047000.3,N
1581872895.3,286047000.1,N
1581872915.2,286047001.6,N
1581872935.0,286047002.4,N
1581872935.9,286047002.4,N
1581872955.8,286047000.3,N
1581872975.6,286047001.3,N
1581872995.4,286047001.3,N
1581873015.3,286047001.1,N
1581873035.1,286047002.0,N
1581873055.8,286047004.1,N
1581873075.7,286047001.8,N
1581873095.5,286047004.0,N
1581873115.4,286047000.2,N
1581873135.2,286047000.0,N
1581873155.0,286047000.0,N
1581873155.9,286047000.0,N
1581873175.8,286047002.6,N
1581873195.6,286047001.5,N
1581873215.4,286047001.7,N
1581873235.3,286047002.1,N
1581873255.1,286047000.5,N
1581873275.9,286046999.7,N
1581873295.7,286047000.2,N
1581873315.5,286047000.4,N
1581873335.4,286047000.0,N
1581873355.2,286046999.9,N
1581873375.1,286047004.2,Y
1581873376.0,286047004.2,P
1581873395.8,286047003.6,N
1581873415.6,286047002.1,N
1581873435.5,286047000.1,N
1581873455.3,286047000.2,N
1581873475.2,286047000.7,N
1581873495.9,286046999.9,N
1581873515.7,286046999.4,N
1581873535.6,286047002.4,N
1581873555.4,286047001.9,N
1581873575.2,286047001.5,N
1581873595.1,286047002.3,N
1581873596.0,286047002.3,N
1581873615.8,286047000.3,N
1581873635.7,286046998.1,N
1581873655.5,286047001.0,N
1581873675.3,286046998.2,N
1581873695.2,286046999.2,N
1581873715.0,286047000.8,N
1581873715.9,286047000.8,N
1581873735.8,286047000.2,N
1581873755.6,286047000.5,N
1581873775.4,286046999.8,N
1581873795.3,286047000.9,N
1581873815.1,286046998.6,N
1581873835.9,286046999.2,N
1581873855.7,286047000.2,N
1581873875.5,286046998.5,N
1581873895.4,286047000.9,N
1581873915.2,286047000.5,N
1581873935.0,286047000.1,N
1581873935.9,286047000.1,N
1581873955.8,286046999.7,N
1581873975.6,286047000.3,N
1581873995.5,286047000.9,N
1581874015.3,286046998.6,N
1581874035.1,286046998.6,N
1581874055.9,286046999.0,N
1581874075.7,286047002.3,N
1581874095.6,286047004.1,Y
1581874115.4,286047002.8,P
1581874135.2,286046998.7,N
1581874155.1,286047000.0,N
1581874156.0,286047000.0,N
1581874175.8,286047002.5,N
1581874195.6,286047001.2,N
1581874215.5,286047000.4,N
1581874235.3,286047002.2,N
1581874255.2,286047002.1,N
1581874275.9,286046998.1,N
1581874295.7,286047000.7,N
1581874315.6,286047000.5,N
1581874335.4,286047001.1,N
1581874355.2,286047000.5,N
1581874375.1,286046999.0,N
1581874376.0,286046999.0,N
1581874395.8,286046999.4,N
1581874415.7,286047001.0,N
1581874435.5,286047000.6,N
1581874455.3,286046996.8,N
1581874475.2,286046995.0,Y
1581874495.0,286046996.5,P
1581874495.9,286046996.5,N
1581874515.8,286046999.6,N
1581874535.6,286046998.4,N
1581874555.4,286046999.0,N
1581874575.3,286046997.0,N
1581874595.1,286046999.2,N
1581874615.8,286046996.5,N
1581874635.7,286047000.7,N
1581874655.5,286046998.9,N
1581874675.4,286046996.7,N
1581874695.2,286046998.4,N
1581874715.0,286046999.6,N
1581874715.9,286046999.6,N
1581874735.8,286047002.3,N
1581874755.6,286047001.9,N
1581874775.5,286047000.6,N
1581874795.4,286046998.8,N
1581874815.3,286047002.7,N
1581874835.1,286047001.2,N
1581874855.9,286046999.1,N
1581874875.7,286047001.2,N
1581874895.5,286047000.6,N
1581874915.4,286047000.9,N
1581874935.2,286046999.7,N
1581874955.1,286046998.2,N
1581874956.0,286046998.2,N
1581874975.8,286046999.7,N
1581874995.6,286047000.8,N
1581875015.5,286047004.1,N
1581875035.3,286047010.9,Y
1581875055.2,286047013.9,P
1581875075.9,286047009.8,N
1581875095.7,286047008.9,N
1581875115.6,286047010.9,N
1581875135.4,286047011.0,N
1581875155.2,286047018.2,Y
1581875175.1,286047013.8,P
1581875176.0,286047013.8,P
1581875195.8,286047006.3,N
1581875215.7,286047003.6,N
1581875235.5,286047001.6,N
1581875255.3,286046998.8,N
1581875275.2,286046997.5,N
1581875295.0,286046997.9,N
1581875295.9,286046997.9,N
1581875315.8,286046995.1,N
1581875335.6,286046997.6,N
1581875355.4,286046994.9,N
1581875375.3,286046993.6,N
1581875395.1,286046993.1,N
1581875415.9,286046989.0,N
1581875435.7,286046987.0,N
1581875455.5,286046985.6,N
1581875475.4,286046982.6,N
1581875495.2,286046979.7,N
1581875515.0,286046979.1,N
1581875516.0,286046979.1,N
1581875535.8,286046979.1,N
1581875555.6,286046982.0,N
1581875575.5,286046981.7,N
1581875595.3,286046981.1,N
1581875615.1,286046981.0,N
1581875635.9,286046983.2,N
1581875655.7,286046983.5,N
1581875675.6,286046983.5,N
1581875695.4,286046980.7,N
1581875715.2,286046982.0,N
1581875735.1,286046983.3,N
1581875736.0,286046983.3,N
1581875755.8,286046980.5,N
1581875775.6,286046981.1,N
1581875795.5,286046981.1,N
1581875815.3,286046981.3,N
1581875835.2,286046981.9,N
1581875855.9,286046981.9,Y
1581875875.7,286046995.8,P
1581875895.6,286046995.7,N
1581875915.4,286046997.5,N
1581875935.3,286046996.7,N
1581875955.1,286046996.7,N
1581875975.8,286046997.7,N
1581875995.7,286046997.4,N
